• In Spain
  • List of Countries
  • For 7 days
  • Water Temperature
  • Satellite Maps
  • Weather Map
  • Weather Widgets
  • user-avatar
    Login

    Hourly Weather Shiraz

    Today, 19 September, Wednesday

    Time Temperature Precipitation Wind Pressure Humidity
    00:00 +29°C° 0 mm 1 mps 639 mmHg 42%
    01:00 +29°C° 0 mm 1 mps 638 mmHg 43%
    02:00 +28°C° 0 mm 1 mps 638 mmHg 43%
    03:00 +28°C° 0 mm 1 mps 638 mmHg 42%
    04:00 +28°C° 0 mm 1 mps 638 mmHg 42%
    05:00 +28°C° 0 mm 1 mps 638 mmHg 41%
    06:00 +25°C° 0 mm 0 mps 639 mmHg 41%
    07:00 +25°C° 0 mm 0 mps 639 mmHg 40%
    08:00 +27°C° 0 mm 0 mps 639 mmHg 34%
    09:00 +30°C° 0 mm 1 mps 640 mmHg 29%
    10:00 +32°C° 0 mm 1 mps 640 mmHg 23%
    11:00 +32°C° 0 mm 1 mps 640 mmHg 22%
    12:00 +33°C° 0 mm 1 mps 640 mmHg 20%
    13:00 +34°C° 0 mm 1 mps 640 mmHg 18%
    14:00 +34°C° 0 mm 1 mps 640 mmHg 18%
    15:00 +36°C° 0 mm 2 mps 639 mmHg 18%
    16:00 +36°C° 0 mm 2 mps 639 mmHg 18%
    17:00 +35°C° 0.1 mm 3 mps 639 mmHg 21%
    18:00 +34°C° 0.1 mm 3 mps 639 mmHg 24%
    19:00 +33°C° 0.1 mm 3 mps 639 mmHg 26%
    20:00 +31°C° 0 mm 2 mps 639 mmHg 30%
    21:00 +31°C° 0 mm 2 mps 639 mmHg 33%
    22:00 +30°C° 0 mm 1 mps 639 mmHg 36%
    23:00 +29°C° 0 mm 1 mps 639 mmHg 38%

    Tomorrow, 20 September, Thursday

    Time Temperature Precipitation Wind Pressure Humidity
    00:00 +29°C° 0 mm 1 mps 638 mmHg 40%
    01:00 +28°C° 0 mm 1 mps 638 mmHg 42%
    02:00 +28°C° 0 mm 1 mps 638 mmHg 43%
    03:00 +27°C° 0 mm 1 mps 638 mmHg 43%
    04:00 +27°C° 0 mm 1 mps 638 mmHg 44%
    05:00 +27°C° 0 mm 1 mps 638 mmHg 43%
    06:00 +27°C° 0 mm 1 mps 638 mmHg 42%
    07:00 +27°C° 0 mm 1 mps 638 mmHg 41%
    08:00 +28°C° 0 mm 1 mps 639 mmHg 35%
    09:00 +30°C° 0 mm 1 mps 639 mmHg 29%
    10:00 +31°C° 0 mm 1 mps 640 mmHg 23%
    11:00 +32°C° 0 mm 1 mps 640 mmHg 21%
    12:00 +33°C° 0 mm 1 mps 640 mmHg 18%
    13:00 +34°C° 0 mm 1 mps 640 mmHg 16%
    14:00 +34°C° 0 mm 1 mps 640 mmHg 16%
    15:00 +35°C° 0 mm 2 mps 639 mmHg 15%
    16:00 +35°C° 0 mm 2 mps 639 mmHg 15%
    17:00 +35°C° 0 mm 2 mps 639 mmHg 17%
    18:00 +34°C° 0 mm 2 mps 638 mmHg 19%
    19:00 +33°C° 0 mm 3 mps 638 mmHg 21%
    20:00 +31°C° 0 mm 2 mps 638 mmHg 24%
    21:00 +30°C° 0 mm 2 mps 639 mmHg 27%
    22:00 +30°C° 0 mm 1 mps 639 mmHg 29%
    23:00 +29°C° 0 mm 1 mps 639 mmHg 30%

    Day after tomorrow, 21 September, Friday

    Time Temperature Precipitation Wind Pressure Humidity
    00:00 +29°C° 0 mm 1 mps 639 mmHg 31%
    01:00 +28°C° 0 mm 1 mps 638 mmHg 32%
    02:00 +28°C° 0 mm 1 mps 638 mmHg 33%
    03:00 +28°C° 0 mm 1 mps 638 mmHg 33%
    04:00 +27°C° 0 mm 1 mps 638 mmHg 34%
    05:00 +27°C° 0 mm 1 mps 638 mmHg 34%
    06:00 +27°C° 0 mm 1 mps 638 mmHg 33%
    07:00 +25°C° 0 mm 0 mps 639 mmHg 33%
    08:00 +28°C° 0 mm 1 mps 639 mmHg 28%
    09:00 +30°C° 0 mm 1 mps 640 mmHg 23%
    10:00 +31°C° 0 mm 1 mps 641 mmHg 19%
    11:00 +32°C° 0 mm 1 mps 641 mmHg 18%
    12:00 +34°C° 0 mm 2 mps 641 mmHg 17%
    13:00 +35°C° 0 mm 2 mps 641 mmHg 15%
    14:00 +35°C° 0 mm 3 mps 640 mmHg 15%
    15:00 +35°C° 0 mm 3 mps 640 mmHg 14%
    16:00 +36°C° 0 mm 4 mps 640 mmHg 14%
    17:00 +35°C° 0 mm 4 mps 639 mmHg 17%
    18:00 +34°C° 0 mm 3 mps 639 mmHg 19%
    19:00 +33°C° 0 mm 3 mps 639 mmHg 22%
    20:00 +31°C° 0 mm 2 mps 639 mmHg 26%
    21:00 +30°C° 0 mm 2 mps 639 mmHg 29%
    22:00 +29°C° 0 mm 1 mps 640 mmHg 33%
    23:00 +28°C° 0 mm 1 mps 639 mmHg 35%

    22 September, Saturday

    Time Temperature Precipitation Wind Pressure Humidity
    00:00 +28°C° 0 mm 1 mps 639 mmHg 38%
    01:00 +25°C° 0 mm 0 mps 639 mmHg 40%
    02:00 +25°C° 0 mm 0 mps 639 mmHg 41%
    03:00 +26°C° 0 mm 1 mps 639 mmHg 43%
    04:00 +26°C° 0 mm 1 mps 638 mmHg 44%
    05:00 +26°C° 0 mm 1 mps 639 mmHg 43%
    06:00 +26°C° 0 mm 1 mps 639 mmHg 43%
    07:00 +26°C° 0 mm 1 mps 639 mmHg 42%
    08:00 +27°C° 0 mm 1 mps 640 mmHg 37%
    09:00 +29°C° 0 mm 1 mps 641 mmHg 32%
    10:00 +30°C° 0 mm 1 mps 641 mmHg 26%
    11:00 +31°C° 0 mm 1 mps 641 mmHg 24%
    12:00 +32°C° 0 mm 1 mps 641 mmHg 22%
    13:00 +33°C° 0 mm 1 mps 641 mmHg 20%
    14:00 +33°C° 0 mm 1 mps 640 mmHg 20%
    15:00 +33°C° 0 mm 1 mps 640 mmHg 20%
    16:00 +33°C° 0 mm 1 mps 639 mmHg 20%
    17:00 +34°C° 0 mm 2 mps 639 mmHg 22%
    18:00 +32°C° 0 mm 2 mps 640 mmHg 24%
    19:00 +31°C° 0 mm 2 mps 640 mmHg 25%
    20:00 +31°C° 0 mm 2 mps 640 mmHg 27%
    21:00 +30°C° 0 mm 1 mps 640 mmHg 29%
    22:00 +30°C° 0 mm 1 mps 641 mmHg 31%
    23:00 +29°C° 0 mm 1 mps 640 mmHg 31%

    23 September, Sunday

    Time Temperature Precipitation Wind Pressure Humidity
    00:00 +29°C° 0 mm 1 mps 640 mmHg 32%
    01:00 +28°C° 0 mm 1 mps 640 mmHg 32%
    02:00 +27°C° 0 mm 1 mps 640 mmHg 31%
    03:00 +27°C° 0 mm 1 mps 639 mmHg 31%
    04:00 +26°C° 0 mm 1 mps 639 mmHg 30%
    05:00 +26°C° 0 mm 1 mps 640 mmHg 30%
    06:00 +26°C° 0 mm 1 mps 640 mmHg 29%
    07:00 +26°C° 0 mm 1 mps 640 mmHg 29%
    08:00 +28°C° 0 mm 1 mps 641 mmHg 25%
    09:00 +29°C° 0 mm 1 mps 641 mmHg 22%
    10:00 +31°C° 0 mm 1 mps 642 mmHg 19%
    11:00 +31°C° 0 mm 1 mps 642 mmHg 17%
    12:00 +32°C° 0 mm 1 mps 641 mmHg 16%
    13:00 +33°C° 0 mm 1 mps 641 mmHg 15%
    14:00 +33°C° 0 mm 1 mps 641 mmHg 15%
    15:00 +34°C° 0 mm 1 mps 640 mmHg 15%
    16:00 +35°C° 0 mm 2 mps 640 mmHg 15%
    17:00 +34°C° 0 mm 2 mps 640 mmHg 17%
    18:00 +32°C° 0 mm 2 mps 640 mmHg 19%
    19:00 +32°C° 0 mm 2 mps 640 mmHg 21%
    20:00 +31°C° 0 mm 2 mps 640 mmHg 24%
    21:00 +30°C° 0 mm 1 mps 640 mmHg 27%
    22:00 +29°C° 0 mm 1 mps 640 mmHg 30%
    23:00 +29°C° 0 mm 1 mps 640 mmHg 32%

    24 September, Monday

    Time Temperature Precipitation Wind Pressure Humidity
    00:00 +28°C° 0 mm 1 mps 639 mmHg 34%
    01:00 +27°C° 0 mm 1 mps 639 mmHg 36%
    02:00 +27°C° 0 mm 1 mps 639 mmHg 37%
    03:00 +26°C° 0 mm 1 mps 638 mmHg 38%
    04:00 +24°C° 0 mm 0 mps 638 mmHg 39%
    05:00 +24°C° 0 mm 0 mps 638 mmHg 39%
    06:00 +24°C° 0 mm 0 mps 639 mmHg 38%
    07:00 +24°C° 0 mm 0 mps 639 mmHg 37%
    08:00 +27°C° 0 mm 1 mps 639 mmHg 32%
    09:00 +29°C° 0 mm 1 mps 640 mmHg 26%
    10:00 +31°C° 0 mm 1 mps 641 mmHg 21%
    11:00 +32°C° 0 mm 1 mps 641 mmHg 20%
    12:00 +33°C° 0 mm 1 mps 640 mmHg 19%
    13:00 +34°C° 0 mm 2 mps 640 mmHg 18%
    14:00 +34°C° 0 mm 2 mps 640 mmHg 18%
    15:00 +35°C° 0 mm 2 mps 639 mmHg 18%
    16:00 +35°C° 0 mm 3 mps 639 mmHg 18%
    17:00 +34°C° 0.1 mm 3 mps 639 mmHg 20%
    18:00 +33°C° 0.1 mm 3 mps 639 mmHg 22%
    19:00 +31°C° 0.1 mm 3 mps 639 mmHg 25%
    20:00 +30°C° 0 mm 2 mps 639 mmHg 27%
    21:00 +30°C° 0 mm 2 mps 639 mmHg 29%
    22:00 +29°C° 0 mm 1 mps 639 mmHg 31%
    23:00 +28°C° 0 mm 1 mps 639 mmHg 32%
    Show more